Time,TemperatureF,DewpointF,PressureIn,WindDirection,WindDirectionDegrees,WindSpeedMPH,WindSpeedGustMPH,Humidity,HourlyPrecipIn,Conditions,Clouds,dailyrainin,SoftwareType,DateUTC
2013-07-16 00:14:00,75.7,75.1,29.49,SSE,157,0.0,-999.0,98,-99.99,,,0.00,Acu-Link.com,2013-07-16 05:14:00,
2013-07-16 00:29:00,75.2,74.6,29.49,South,180,0.0,-999.0,98,-99.99,,,0.00,Acu-Link.com,2013-07-16 05:29:00,
2013-07-16 00:44:00,74.8,74.2,29.49,SE,135,0.0,-999.0,98,-99.99,,,0.00,Acu-Link.com,2013-07-16 05:44:00,
2013-07-16 00:59:00,74.5,73.9,29.49,South,180,0.0,-999.0,98,-99.99,,,0.00,Acu-Link.com,2013-07-16 05:59:00,
2013-07-16 01:14:00,74.3,73.7,29.49,SSW,202,0.0,-999.0,98,-99.99,,,0.00,Acu-Link.com,2013-07-16 06:14:00,
2013-07-16 01:29:00,74.3,73.7,29.49,South,180,0.0,-999.0,98,-99.99,,,0.00,Acu-Link.com,2013-07-16 06:29:00,
2013-07-16 01:44:00,74.3,73.7,29.49,South,180,0.0,-999.0,98,-99.99,,,0.00,Acu-Link.com,2013-07-16 06:44:00,
2013-07-16 01:59:00,74.1,73.5,29.49,South,180,0.0,-999.0,98,-99.99,,,0.00,Acu-Link.com,2013-07-16 06:59:00,
2013-07-16 02:14:00,73.6,73.0,29.50,South,180,0.0,-999.0,98,-99.99,,,0.00,Acu-Link.com,2013-07-16 07:14:00,
2013-07-16 02:30:00,72.9,72.3,29.50,SSW,202,0.0,-999.0,98,-99.99,,,0.00,Acu-Link.com,2013-07-16 07:30:00,
2013-07-16 02:45:00,72.1,71.5,29.50,SSW,202,0.0,-999.0,98,-99.99,,,0.00,Acu-Link.com,2013-07-16 07:45:00,
2013-07-16 03:00:00,72.0,71.4,29.49,South,180,0.0,-999.0,98,-99.99,,,0.00,Acu-Link.com,2013-07-16 08:00:00,
2013-07-16 03:15:00,71.8,71.2,29.50,South,180,0.0,-999.0,98,-99.99,,,0.00,Acu-Link.com,2013-07-16 08:15:00,
2013-07-16 03:30:00,71.4,70.8,29.49,SSW,202,0.0,-999.0,98,-99.99,,,0.00,Acu-Link.com,2013-07-16 08:30:00,
2013-07-16 03:45:00,71.4,70.8,29.50,South,180,0.0,-999.0,98,-99.99,,,0.00,Acu-Link.com,2013-07-16 08:45:00,
2013-07-16 04:01:00,71.4,70.8,29.49,SE,135,0.0,-999.0,98,-99.99,,,0.00,Acu-Link.com,2013-07-16 09:01:00,
2013-07-16 04:16:00,71.2,70.6,29.49,South,180,0.0,-999.0,98,-99.99,,,0.00,Acu-Link.com,2013-07-16 09:16:00,
2013-07-16 04:31:00,70.9,70.3,29.50,South,180,0.0,-999.0,98,-99.99,,,0.00,Acu-Link.com,2013-07-16 09:31:00,
2013-07-16 04:46:00,70.7,70.1,29.49,South,180,0.0,-999.0,98,-99.99,,,0.00,Acu-Link.com,2013-07-16 09:46:00,
2013-07-16 05:01:00,70.3,69.7,29.50,South,180,0.0,-999.0,98,-99.99,,,0.00,Acu-Link.com,2013-07-16 10:01:00,
2013-07-16 05:16:00,70.2,69.6,29.50,SSW,202,0.0,-999.0,98,-99.99,,,0.00,Acu-Link.com,2013-07-16 10:16:00,
2013-07-16 05:31:00,70.0,69.4,29.51,SSW,202,0.0,-999.0,98,-99.99,,,0.00,Acu-Link.com,2013-07-16 10:31:00,
2013-07-16 05:46:00,69.6,69.0,29.50,SSW,202,0.0,-999.0,98,-99.99,,,0.00,Acu-Link.com,2013-07-16 10:46:00,
2013-07-16 06:01:00,70.0,65.9,29.51,SSW,202,0.0,-999.0,87,-99.99,,,0.00,Acu-Link.com,2013-07-16 11:01:00,
2013-07-16 06:16:00,70.3,64.9,29.51,South,180,0.0,-999.0,83,-99.99,,,0.00,Acu-Link.com,2013-07-16 11:16:00,
2013-07-16 06:32:00,70.7,63.9,29.52,SE,135,0.0,-999.0,79,-99.99,,,0.00,Acu-Link.com,2013-07-16 11:32:00,
2013-07-16 06:47:00,71.1,63.9,29.52,SSE,157,0.0,-999.0,78,-99.99,,,0.00,Acu-Link.com,2013-07-16 11:47:00,
2013-07-16 07:02:00,71.6,65.8,29.52,SSE,157,0.0,-999.0,82,-99.99,,,0.00,Acu-Link.com,2013-07-16 12:02:00,
2013-07-16 07:17:00,72.7,72.1,29.52,SSE,157,0.0,-999.0,98,-99.99,,,0.00,Acu-Link.com,2013-07-16 12:17:00,
2013-07-16 07:32:00,73.4,72.8,29.52,SE,135,0.0,-999.0,98,-99.99,,,0.00,Acu-Link.com,2013-07-16 12:32:00,
2013-07-16 07:47:00,74.1,73.5,29.53,SE,135,0.0,-999.0,98,-99.99,,,0.00,Acu-Link.com,2013-07-16 12:47:00,
2013-07-16 08:03:00,75.4,74.8,29.54,SSE,157,0.0,-999.0,98,-99.99,,,0.00,Acu-Link.com,2013-07-16 13:03:00,
2013-07-16 08:18:00,82.2,81.6,29.53,South,180,0.0,-999.0,98,-99.99,,,0.00,Acu-Link.com,2013-07-16 13:18:00,
2013-07-16 08:33:00,86.4,77.9,29.54,SSE,157,0.0,-999.0,76,-99.99,,,0.00,Acu-Link.com,2013-07-16 13:33:00,
2013-07-16 08:48:00,90.3,78.7,29.55,SSE,157,0.0,-999.0,69,-99.99,,,0.00,Acu-Link.com,2013-07-16 13:48:00,
2013-07-16 09:03:00,93.7,79.2,29.55,South,180,0.0,-999.0,63,-99.99,,,0.00,Acu-Link.com,2013-07-16 14:03:00,
2013-07-16 09:18:00,95.5,78.8,29.55,South,180,0.0,-999.0,59,-99.99,,,0.00,Acu-Link.com,2013-07-16 14:18:00,
2013-07-16 09:33:00,97.3,77.8,29.55,ENE,67,0.0,-999.0,54,-99.99,,,0.00,Acu-Link.com,2013-07-16 14:33:00,
2013-07-16 09:48:00,99.3,77.3,29.55,North,0,0.0,-999.0,50,-99.99,,,0.00,Acu-Link.com,2013-07-16 14:48:00,
2013-07-16 10:03:00,100.8,77.5,29.55,South,180,0.0,-999.0,48,-99.99,,,0.00,Acu-Link.com,2013-07-16 15:03:00,
2013-07-16 10:19:00,103.1,76.9,29.55,ESE,112,0.0,-999.0,44,-99.99,,,0.00,Acu-Link.com,2013-07-16 15:19:00,
2013-07-16 10:34:00,104.0,77.0,29.55,WNW,292,0.0,-999.0,43,-99.99,,,0.00,Acu-Link.com,2013-07-16 15:34:00,
2013-07-16 10:49:00,101.8,74.3,29.55,South,180,0.0,-999.0,42,-99.99,,,0.00,Acu-Link.com,2013-07-16 15:49:00,
2013-07-16 11:04:00,106.0,75.1,29.56,SSE,157,0.0,-999.0,38,-99.99,,,0.00,Acu-Link.com,2013-07-16 16:04:00,
2013-07-16 11:19:00,106.5,74.7,29.55,East,90,0.0,-999.0,37,-99.99,,,0.00,Acu-Link.com,2013-07-16 16:19:00,
2013-07-16 11:34:00,104.9,74.1,29.55,North,0,0.0,-999.0,38,-99.99,,,0.00,Acu-Link.com,2013-07-16 16:34:00,
2013-07-16 11:49:00,102.4,74.1,29.55,NNW,337,0.0,-999.0,41,-99.99,,,0.00,Acu-Link.com,2013-07-16 16:49:00,
2013-07-16 12:04:00,105.4,74.5,29.55,West,270,0.0,-999.0,38,-99.99,,,0.00,Acu-Link.com,2013-07-16 17:04:00,
2013-07-16 12:19:00,101.5,73.3,29.55,SSE,157,0.0,-999.0,41,-99.99,,,0.00,Acu-Link.com,2013-07-16 17:19:00,
2013-07-16 12:34:00,102.4,73.4,29.54,South,180,0.0,-999.0,40,-99.99,,,0.00,Acu-Link.com,2013-07-16 17:34:00,
2013-07-16 12:50:00,103.3,74.2,29.55,SE,135,0.0,-999.0,40,-99.99,,,0.00,Acu-Link.com,2013-07-16 17:50:00,
2013-07-16 13:05:00,104.9,76.4,29.55,NNE,22,0.0,-999.0,41,-99.99,,,0.00,Acu-Link.com,2013-07-16 18:05:00,
2013-07-16 13:20:00,99.7,73.8,29.55,SSE,157,0.0,-999.0,44,-99.99,,,0.00,Acu-Link.com,2013-07-16 18:20:00,
2013-07-16 13:35:00,94.6,73.6,29.54,SW,225,0.0,-999.0,51,-99.99,,,0.00,Acu-Link.com,2013-07-16 18:35:00,
2013-07-16 13:50:00,96.1,73.8,29.54,SSW,202,0.0,-999.0,49,-99.99,,,0.00,Acu-Link.com,2013-07-16 18:50:00,
2013-07-16 14:05:00,101.1,75.8,29.53,SSW,202,0.0,-999.0,45,-99.99,,,0.00,Acu-Link.com,2013-07-16 19:05:00,
2013-07-16 14:20:00,100.8,74.1,29.53,SSW,202,0.0,-999.0,43,-99.99,,,0.00,Acu-Link.com,2013-07-16 19:20:00,
2013-07-16 14:35:00,97.0,73.4,29.53,SSE,157,0.0,-999.0,47,-99.99,,,0.00,Acu-Link.com,2013-07-16 19:35:00,
2013-07-16 14:51:00,99.5,74.3,29.53,SSW,202,0.0,-999.0,45,-99.99,,,0.00,Acu-Link.com,2013-07-16 19:51:00,
2013-07-16 15:06:00,97.9,72.2,29.53,SSE,157,0.0,-999.0,44,-99.99,,,0.00,Acu-Link.com,2013-07-16 20:06:00,
2013-07-16 15:21:00,105.8,74.9,29.52,North,0,0.0,-999.0,38,-99.99,,,0.00,Acu-Link.com,2013-07-16 20:21:00,
2013-07-16 15:36:00,100.4,73.1,29.52,WSW,247,0.0,-999.0,42,-99.99,,,0.00,Acu-Link.com,2013-07-16 20:36:00,
2013-07-16 15:51:00,99.9,74.0,29.52,NNE,22,0.0,-999.0,44,-99.99,,,0.00,Acu-Link.com,2013-07-16 20:51:00,
2013-07-16 16:06:00,99.3,73.5,29.52,South,180,0.0,-999.0,44,-99.99,,,0.00,Acu-Link.com,2013-07-16 21:06:00,
2013-07-16 16:21:00,99.0,73.9,29.51,SSE,157,0.0,-999.0,45,-99.99,,,0.00,Acu-Link.com,2013-07-16 21:21:00,
2013-07-16 16:37:00,98.8,73.0,29.51,SE,135,0.0,-999.0,44,-99.99,,,0.00,Acu-Link.com,2013-07-16 21:37:00,
2013-07-16 16:52:00,97.9,72.9,29.51,ESE,112,0.0,-999.0,45,-99.99,,,0.00,Acu-Link.com,2013-07-16 21:52:00,
2013-07-16 17:07:00,96.3,73.4,29.51,East,90,0.0,-999.0,48,-99.99,,,0.00,Acu-Link.com,2013-07-16 22:07:00,
2013-07-16 17:22:00,99.9,74.0,29.51,North,0,0.0,-999.0,44,-99.99,,,0.00,Acu-Link.com,2013-07-16 22:22:00,
2013-07-16 17:38:00,97.5,72.5,29.51,ESE,112,0.0,-999.0,45,-99.99,,,0.00,Acu-Link.com,2013-07-16 22:38:00,
2013-07-16 17:53:00,96.8,71.9,29.51,SSE,157,0.0,-999.0,45,-99.99,,,0.00,Acu-Link.com,2013-07-16 22:53:00,
2013-07-16 18:08:00,98.6,74.8,29.50,SSW,202,0.0,-999.0,47,-99.99,,,0.00,Acu-Link.com,2013-07-16 23:08:00,
2013-07-16 18:23:00,96.3,72.1,29.51,SSE,157,0.0,-999.0,46,-99.99,,,0.00,Acu-Link.com,2013-07-16 23:23:00,
2013-07-16 18:38:00,95.4,72.5,29.51,SSW,202,0.0,-999.0,48,-99.99,,,0.00,Acu-Link.com,2013-07-16 23:38:00,
2013-07-16 18:53:00,94.5,73.5,29.50,SSE,157,0.0,-999.0,51,-99.99,,,0.00,Acu-Link.com,2013-07-16 23:53:00,
2013-07-16 19:08:00,93.7,72.8,29.50,SSW,202,0.0,-999.0,51,-99.99,,,0.00,Acu-Link.com,2013-07-17 00:08:00,
2013-07-16 19:23:00,93.9,74.1,29.51,West,270,0.0,-999.0,53,-99.99,,,0.00,Acu-Link.com,2013-07-17 00:23:00,
2013-07-16 19:38:00,93.0,73.3,29.51,SSW,202,0.0,-999.0,53,-99.99,,,0.00,Acu-Link.com,2013-07-17 00:38:00,
2013-07-16 19:54:00,90.9,73.5,29.52,South,180,0.0,-999.0,57,-99.99,,,0.00,Acu-Link.com,2013-07-17 00:54:00,
2013-07-16 20:09:00,89.1,74.3,29.52,SSW,202,0.0,-999.0,62,-99.99,,,0.00,Acu-Link.com,2013-07-17 01:09:00,
2013-07-16 20:24:00,87.6,74.3,29.52,SSW,202,0.0,-999.0,65,-99.99,,,0.00,Acu-Link.com,2013-07-17 01:24:00,
2013-07-16 20:39:00,86.0,74.6,29.52,SSW,202,0.0,-999.0,69,-99.99,,,0.00,Acu-Link.com,2013-07-17 01:39:00,
2013-07-16 20:54:00,84.0,74.8,29.52,South,180,0.0,-999.0,74,-99.99,,,0.00,Acu-Link.com,2013-07-17 01:54:00,
2013-07-16 21:09:00,82.2,74.6,29.52,SSW,202,0.0,-999.0,78,-99.99,,,0.00,Acu-Link.com,2013-07-17 02:09:00,
2013-07-16 21:24:00,81.1,74.7,29.53,SSW,202,0.0,-999.0,81,-99.99,,,0.00,Acu-Link.com,2013-07-17 02:24:00,
2013-07-16 21:39:00,80.4,75.1,29.53,SSW,202,0.0,-999.0,84,-99.99,,,0.00,Acu-Link.com,2013-07-17 02:39:00,
2013-07-16 21:54:00,79.7,75.1,29.54,South,180,0.0,-999.0,86,-99.99,,,0.00,Acu-Link.com,2013-07-17 02:54:00,
2013-07-16 22:10:00,78.6,74.0,29.54,SSW,202,0.0,-999.0,86,-99.99,,,0.00,Acu-Link.com,2013-07-17 03:10:00,
2013-07-16 22:25:00,77.7,77.1,29.54,South,180,0.0,-999.0,98,-99.99,,,0.00,Acu-Link.com,2013-07-17 03:25:00,
2013-07-16 22:40:00,77.2,76.6,29.54,SSW,202,0.0,-999.0,98,-99.99,,,0.00,Acu-Link.com,2013-07-17 03:40:00,
2013-07-16 22:55:00,76.6,76.0,29.55,SSW,202,0.0,-999.0,98,-99.99,,,0.00,Acu-Link.com,2013-07-17 03:55:00,
2013-07-16 23:10:00,76.1,75.5,29.55,SSW,202,0.0,-999.0,98,-99.99,,,0.00,Acu-Link.com,2013-07-17 04:10:00,
2013-07-16 23:25:00,75.6,75.0,29.55,SW,225,0.0,-999.0,98,-99.99,,,0.00,Acu-Link.com,2013-07-17 04:25:00,
2013-07-16 23:40:00,75.2,74.6,29.55,East,90,0.0,-999.0,98,-99.99,,,0.00,Acu-Link.com,2013-07-17 04:40:00,
2013-07-16 23:55:00,74.7,74.1,29.55,SSW,202,0.0,-999.0,98,-99.99,,,0.00,Acu-Link.com,2013-07-17 04:55:00,